Wetterdaten: aktuell Donnerstag, 30.03.2017 18:24
Datum Zeit Temperatur Bodentemp. Luftfeuchte Luftdruck Regen Wind Richtung Richtung Sonnenschein
30.03.2017 18:24 22,0 C 13,5 C 28 % 1022 hPa 0,0 l/m 6,7 km/h (2 Bft) W-SW 240 0 min
30.03.2017 18:19 21,9 C 13,2 C 25 % 1022 hPa 0,0 l/m 9,6 km/h (2 Bft) W-SW45 250 0 min
30.03.2017 18:13 22,2 C 13,2 C 27 % 1022 hPa 0,0 l/m 11,4 km/h (2 Bft) W-SW22.5 240 0 min
30.03.2017 18:09 22,3 C 13,7 C 23 % 1022 hPa 0,0 l/m 13,3 km/h (3 Bft) W-SW22.5 240 0 min
30.03.2017 18:04 22,4 C 14,2 C 24 % 1022 hPa 0,0 l/m 16,3 km/h (3 Bft) SW45 235 0 min
30.03.2017 17:59 22,4 C 14,3 C 27 % 1022 hPa 0,0 l/m 9,2 km/h (2 Bft) SW45 235 0 min
30.03.2017 17:53 22,7 C 14,0 C 20 % 1022 hPa 0,0 l/m 12,3 km/h (2 Bft) SW22.5 230 0 min
30.03.2017 17:49 23,3 C 14,9 C 6 % 1022 hPa 0,0 l/m 18,1 km/h (3 Bft) SW45 230 0 min
30.03.2017 17:44 23,5 C 14,9 C 6 % 1022 hPa 0,0 l/m 15,0 km/h (3 Bft) S-SW22.5 205 0 min
30.03.2017 17:38 23,4 C 15,9 C 5 % 1022 hPa 0,0 l/m 21,1 km/h (4 Bft) W-SW22.5 250 0 min
30.03.2017 17:33 23,4 C 15,6 C 5 % 1022 hPa 0,0 l/m 18,0 km/h (3 Bft) W-SW45 240 0 min
30.03.2017 17:29 23,5 C 15,6 C 6 % 1022 hPa 0,0 l/m 12,1 km/h (2 Bft) W45 265 0 min
30.03.2017 17:24 23,9 C 15,1 C 15 % 1022 hPa 0,0 l/m 10,5 km/h (2 Bft) S-SW22.5 210 0 min
30.03.2017 17:18 23,8 C 15,1 C 11 % 1022 hPa 0,0 l/m 12,7 km/h (3 Bft) SW45 215 0 min
30.03.2017 17:14 23,4 C 15,1 C 6 % 1023 hPa 0,0 l/m 8,5 km/h (2 Bft) S-SW22.5 195 0 min
30.03.2017 17:09 23,2 C 15,3 C 5 % 1023 hPa 0,0 l/m 13,5 km/h (3 Bft) W45 270 0 min
30.03.2017 17:04 23,6 C 15,8 C 7 % 1023 hPa 0,0 l/m 22,5 km/h (4 Bft) W-SW45 240 0 min
30.03.2017 16:58 23,5 C 16,2 C 15 % 1023 hPa 0,0 l/m 19,4 km/h (3 Bft) W-SW67.5 250 0 min
30.03.2017 16:54 23,5 C 15,8 C 15 % 1023 hPa 0,0 l/m 21,4 km/h (4 Bft) W-SW45 250 0 min
30.03.2017 16:49 22,9 C 15,5 C 21 % 1023 hPa 0,0 l/m 15,6 km/h (3 Bft) W45 260 0 min
30.03.2017 16:43 22,2 C 14,8 C 22 % 1023 hPa 0,0 l/m 14,2 km/h (3 Bft) W45 265 0 min
30.03.2017 16:38 22,0 C 14,7 C 9 % 1023 hPa 0,0 l/m 11,8 km/h (2 Bft) W45 275 0 min
30.03.2017 16:34 23,4 C 14,3 C 12 % 1023 hPa 0,0 l/m 26,3 km/h (4 Bft) SW45 235 0 min
30.03.2017 16:29 23,5 C 15,3 C 5 % 1023 hPa 0,0 l/m 18,5 km/h (3 Bft) W67.5 265 0 min
30.03.2017 16:23 23,1 C 15,7 C 5 % 1023 hPa 0,0 l/m 14,8 km/h (3 Bft) W67.5 270 0 min
30.03.2017 16:19 23,7 C 15,5 C 10 % 1023 hPa 0,0 l/m 21,5 km/h (4 Bft) SW22.5 235 0 min
30.03.2017 16:14 23,6 C 14,8 C 14 % 1023 hPa 0,0 l/m 22,1 km/h (4 Bft) SW45 230 0 min
30.03.2017 16:08 23,2 C 15,3 C 16 % 1023 hPa 0,0 l/m 19,9 km/h (4 Bft) W-SW45 250 0 min
30.03.2017 16:03 22,9 C 15,1 C 8 % 1023 hPa 0,0 l/m 14,5 km/h (3 Bft) W-SW45 250 0 min
30.03.2017 15:59 22,9 C 15,1 C 16 % 1023 hPa 0,0 l/m 22,0 km/h (4 Bft) SW45 235 0 min
30.03.2017 15:54 22,7 C 15,5 C 5 % 1023 hPa 0,0 l/m 19,8 km/h (3 Bft) W45 280 0 min
30.03.2017 15:48 22,8 C 15,5 C 5 % 1023 hPa 0,0 l/m 16,3 km/h (3 Bft) W-SW45 240 0 min
30.03.2017 15:44 23,2 C 15,5 C 13 % 1023 hPa 0,0 l/m 12,8 km/h (3 Bft) W-SW45 240 0 min
30.03.2017 15:39 23,1 C 15,6 C 5 % 1023 hPa 0,0 l/m 21,1 km/h (4 Bft) W-SW67.5 255 0 min
30.03.2017 15:34 23,7 C 14,5 C 12 % 1023 hPa 0,0 l/m 18,3 km/h (3 Bft) SW45 230 0 min
30.03.2017 15:28 23,6 C 14,8 C 23 % 1023 hPa 0,0 l/m 11,3 km/h (2 Bft) S-SW45 205 0 min
30.03.2017 15:24 23,2 C 15,0 C 12 % 1023 hPa 0,0 l/m 21,7 km/h (4 Bft) W-SW45 245 0 min
30.03.2017 15:19 23,1 C 15,2 C 9 % 1023 hPa 0,0 l/m 18,7 km/h (3 Bft) W-SW45 240 0 min
30.03.2017 15:13 23,3 C 14,9 C 16 % 1024 hPa 0,0 l/m 17,1 km/h (3 Bft) W-SW67.5 250 0 min
30.03.2017 15:08 23,5 C 15,3 C 19 % 1024 hPa 0,0 l/m 18,8 km/h (3 Bft) W-SW67.5 245 0 min
30.03.2017 15:04 23,3 C 14,8 C 15 % 1024 hPa 0,0 l/m 19,4 km/h (3 Bft) S-SW22.5 210 0 min
30.03.2017 14:59 23,2 C 15,0 C 19 % 1024 hPa 0,0 l/m 25,3 km/h (4 Bft) SW45 225 0 min
30.03.2017 14:53 22,8 C 15,1 C 20 % 1024 hPa 0,0 l/m 25,9 km/h (4 Bft) SW67.5 235 0 min
30.03.2017 14:49 22,6 C 15,4 C 26 % 1024 hPa 0,0 l/m 27,7 km/h (5 Bft) W-SW45 240 0 min
30.03.2017 14:43 22,0 C 15,1 C 23 % 1024 hPa 0,0 l/m 14,8 km/h (3 Bft) W45 265 0 min
30.03.2017 14:44 22,0 C 15,1 C 23 % 1024 hPa 0,0 l/m 14,8 km/h (3 Bft) W45 265 0 min
30.03.2017 14:39 22,6 C 15,4 C 22 % 1024 hPa 0,0 l/m 22,0 km/h (4 Bft) W-SW45 250 0 min
30.03.2017 14:33 22,4 C 15,1 C 31 % 1024 hPa 0,0 l/m 22,1 km/h (4 Bft) W-SW45 250 0 min
30.03.2017 14:28 22,0 C 14,8 C 29 % 1024 hPa 0,0 l/m 13,6 km/h (3 Bft) W67.5 275 0 min
_ Min-Zeit 23:03 23:18 15:39 17:18 - 20:34 - - -
Minimum _ 12,1 C 7,3 C 5 % 1022 hPa - 0,0 km/h (0 Bft) - - -
_ Max-Zeit 17:24 16:58 23:09 23:09 19:04 12:29 - - 09:49
Maximum _ 23,9 C 16,2 C 78 % 1026 hPa 0,0 l/m 28,5 km/h
SW (5 Bft)
- - 6 min
Durchschnitt _ 15,8 C 10,0 C 56 % 1024 hPa #0,0 l/m 10,2 km/h (2 Bft) S-SW - #1:41 h